Weather History for Monarch Pass, CO

Change the Weather History Date:

Tuesday, April 2, 2013

  Actual Average (KGUC) Record (KGUC)
Temperature  
Mean Temperature 24 °F -  
Max Temperature 28 °F 47 °F 66 °F (2011)
Min Temperature 19 °F 21 °F 0 °F (2009)
Degree Days  
Heating Degree Days 42    
Moisture  
Dew Point 21 °F    
Average Humidity 92    
Maximum Humidity 100    
Minimum Humidity 59    
Precipitation  
Precipitation 0.00 in - - ()
Sea Level Pressure  
Sea Level Pressure 30.17 in    
Wind  
Wind Speed 8 mph (ENE)    
Max Wind Speed 18 mph    
Max Gust Speed -    
Averages and records for this station are not official NWS values.
T = Trace of Precipitation, MM = Missing Value Source: NWS Daily Summary

Daily Weather History Graph

Daily Weather History Graph

Search for Another Location

Airport:

Trip Planner

Search our weather history database for the weather conditions in past years. The results will help you decide how hot, cold, wet, or windy it might be!

Date:

Astronomy

Apr. 02, 2013 Rise Set
Actual Time 6:48 AM MDT 7:29 PM MDT
Civil Twilight 6:21 AM MDT 7:56 PM MDT
Nautical Twilight 5:49 AM MDT 8:28 PM MDT
Astronomical Twilight 5:17 AM MDT 9:00 PM MDT
Moon 1:34 AM MDT (4/2) 11:45 AM MDT (4/2)
Length of Visible Light 13h 35m
Length of Day
12h 41m
Waning Gibbous, 55% of the Moon is Illuminated
Apr 2
Waning Gibbous
Apr 2
Last Quarter
Apr 10
New
Apr 18
First Quarter
Apr 25
Full

Hourly Weather History & Observations

Time (MDT) Temp. Windchill Dew Point Humidity Pressure Visibility Wind Dir Wind Speed Gust Speed Precip Events Conditions
12:19 AM 28.4 °F - 15.8 °F 59% 30.22 in - Calm Calm - N/A   Clear
12:39 AM 26.6 °F - 17.6 °F 69% 30.22 in - Calm Calm - N/A   Clear
12:59 AM 23.0 °F 15.8 °F 21.2 °F 93% 30.21 in - ENE 5.8 mph - N/A   Unknown
1:19 AM 23.0 °F 17.0 °F 21.2 °F 93% 30.21 in - ENE 4.6 mph - N/A   Unknown
1:39 AM 23.0 °F 13.1 °F 23.0 °F 100% 30.21 in - ENE 9.2 mph - N/A   Unknown
1:59 AM 23.0 °F 12.4 °F 21.2 °F 93% 30.21 in - East 10.4 mph - N/A   Mostly Cloudy
2:19 AM 23.0 °F 13.9 °F 21.2 °F 93% 30.20 in - East 8.1 mph - N/A   Unknown
2:39 AM 23.0 °F 13.1 °F 21.2 °F 93% 30.20 in - ENE 9.2 mph - N/A   Mostly Cloudy
2:59 AM 23.0 °F 15.8 °F 21.2 °F 93% 30.20 in - ENE 5.8 mph - N/A   Overcast
3:19 AM 21.2 °F - 19.4 °F 93% 30.19 in - North - - N/A   Overcast
3:39 AM 21.2 °F - 21.2 °F 100% 30.18 in - North - - N/A   Mostly Cloudy
3:59 AM 23.0 °F - 21.2 °F 93% 30.18 in - North - - N/A   Mostly Cloudy
4:19 AM 21.2 °F - 19.4 °F 93% 30.18 in - North - - N/A   Overcast
4:39 AM 21.2 °F - 19.4 °F 93% 30.18 in - North - - N/A   Overcast
4:59 AM 21.2 °F - 19.4 °F 93% 30.17 in - North - - N/A   Overcast
5:19 AM 21.2 °F - 19.4 °F 93% 30.17 in - North - - N/A   Overcast
5:39 AM 21.2 °F - 19.4 °F 93% 30.17 in - North - - N/A   Overcast
5:59 AM 21.2 °F - 19.4 °F 93% 30.17 in - North - - N/A   Overcast
6:19 AM 21.2 °F - 19.4 °F 93% 30.17 in - North - - N/A   Overcast
6:39 AM 21.2 °F - 19.4 °F 93% 30.17 in - North - - N/A   Overcast
6:59 AM 21.2 °F - 19.4 °F 93% 30.17 in - North - - N/A   Overcast
7:19 AM 21.2 °F - 19.4 °F 93% 30.17 in - North - - N/A   Overcast
7:39 AM 21.2 °F - 19.4 °F 93% 30.17 in - North - - N/A   Overcast
7:59 AM 21.2 °F - 19.4 °F 93% 30.17 in - North - - N/A   Overcast
8:39 AM 23.0 °F - 21.2 °F 93% 30.17 in - North - - N/A   Overcast
8:59 AM 23.0 °F - 21.2 °F 93% 30.17 in - North - - N/A   Mostly Cloudy
9:19 AM 23.0 °F - 21.2 °F 93% 30.17 in - North - - N/A   Overcast
9:39 AM 23.0 °F - 21.2 °F 93% 30.17 in - North - - N/A   Overcast
9:59 AM 23.0 °F - 21.2 °F 93% 30.16 in - North - - N/A   Overcast
10:19 AM 23.0 °F - 23.0 °F 100% 30.16 in - North - - N/A   Overcast
10:39 AM 23.0 °F 10.6 °F 21.2 °F 93% 30.16 in - ENE 13.8 mph - N/A   Overcast
10:59 AM 23.0 °F 11.7 °F 21.2 °F 93% 30.16 in - ENE 11.5 mph - N/A   Overcast
11:19 AM 23.0 °F 13.9 °F 21.2 °F 93% 30.17 in - East 8.1 mph - N/A   Overcast
11:39 AM 23.0 °F 11.1 °F 21.2 °F 93% 30.16 in - ENE 12.7 mph - N/A   Overcast
11:59 AM 23.0 °F 10.1 °F 21.2 °F 93% 30.16 in - ENE 15.0 mph - N/A Thunderstorm Thunderstorm
12:19 PM 23.0 °F 9.6 °F 21.2 °F 93% 30.15 in - ENE 16.1 mph - N/A   Overcast
12:39 PM 24.8 °F 12.4 °F 23.0 °F 93% 30.15 in - ENE 15.0 mph - N/A   Overcast
12:59 PM 24.8 °F 11.1 °F 23.0 °F 93% 30.15 in - ENE 18.4 mph - N/A   Overcast
1:19 PM 24.8 °F 11.5 °F 23.0 °F 93% 30.14 in - ENE 17.3 mph - N/A   Overcast
1:39 PM 24.8 °F 12.4 °F 23.0 °F 93% 30.14 in - ENE 15.0 mph - N/A   Overcast
1:59 PM 23.0 °F 11.7 °F 21.2 °F 93% 30.14 in - NE 11.5 mph - N/A   Unknown
2:19 PM 24.8 °F 15.3 °F 23.0 °F 93% 30.15 in - East 9.2 mph - N/A Thunderstorm Thunderstorm
2:39 PM 24.8 °F 14.0 °F 23.0 °F 93% 30.14 in - NE 11.5 mph - N/A   Overcast
2:59 PM 26.6 °F 18.2 °F 23.0 °F 86% 30.14 in - NE 8.1 mph - N/A   Unknown
3:19 PM 24.8 °F 17.9 °F 23.0 °F 93% 30.14 in - East 5.8 mph - N/A   Unknown
3:39 PM 24.8 °F 17.9 °F 23.0 °F 93% 30.14 in - NNE 5.8 mph - N/A   Overcast
3:59 PM 26.6 °F 20.0 °F 23.0 °F 86% 30.14 in - NNE 5.8 mph - N/A   Overcast
4:19 PM 24.8 °F 20.5 °F 23.0 °F 93% 30.14 in - ENE 3.5 mph - N/A   Overcast
4:39 PM 24.8 °F 17.9 °F 23.0 °F 93% 30.14 in - ENE 5.8 mph - N/A   Unknown
4:59 PM 24.8 °F 14.6 °F 23.0 °F 93% 30.14 in - NE 10.4 mph - N/A   Overcast
5:19 PM 23.0 °F 9.2 °F 23.0 °F 100% 30.14 in - ENE 17.3 mph - N/A   Overcast
5:39 PM 23.0 °F 10.1 °F 21.2 °F 93% 30.14 in - ENE 15.0 mph - N/A   Overcast
5:59 PM 23.0 °F 9.2 °F 21.2 °F 93% 30.14 in - ENE 17.3 mph - N/A Thunderstorm Thunderstorm
6:19 PM 23.0 °F 8.7 °F 21.2 °F 93% 30.14 in - ENE 18.4 mph - N/A   Overcast
6:39 PM 23.0 °F 9.6 °F 21.2 °F 93% 30.15 in - ENE 16.1 mph - N/A   Overcast
6:59 PM 23.0 °F 10.1 °F 21.2 °F 93% 30.16 in - NE 15.0 mph - N/A   Overcast
7:19 PM 23.0 °F 8.7 °F 21.2 °F 93% 30.16 in - ENE 18.4 mph - N/A   Overcast
7:39 PM 21.2 °F 7.3 °F 19.4 °F 93% 30.16 in - NE 16.1 mph - N/A   Overcast
7:59 PM 21.2 °F - 19.4 °F 93% 30.16 in - North - - N/A   Overcast
8:19 PM 21.2 °F - 19.4 °F 93% 30.17 in - North - - N/A   Overcast
8:39 PM 21.2 °F - 19.4 °F 93% 30.17 in - North - - N/A   Overcast
8:59 PM 21.2 °F - 19.4 °F 93% 30.18 in - North - - N/A   Overcast
9:19 PM 21.2 °F - 17.6 °F 86% 30.19 in - North - - N/A   Overcast
9:39 PM 21.2 °F - 17.6 °F 86% 30.20 in - North - - N/A   Overcast
9:59 PM 21.2 °F - 19.4 °F 93% 30.20 in - North - - N/A   Overcast
10:19 PM 21.2 °F - 19.4 °F 93% 30.20 in - North - - N/A   Overcast
10:39 PM 19.4 °F - 17.6 °F 93% 30.20 in - North - - N/A   Overcast
10:59 PM 19.4 °F - 17.6 °F 93% 30.20 in - North - - N/A   Overcast
11:19 PM 19.4 °F - 17.6 °F 93% 30.20 in - North - - N/A   Overcast
11:39 PM 19.4 °F - 17.6 °F 93% 30.20 in - North - - N/A   Overcast
11:59 PM 19.4 °F - 17.6 °F 93% 30.20 in - North - - N/A   Overcast